INTELSAT 39 (44476 NORAD) Tracking and Keplerian Element Data

This shows tracking and keplerian element data for the satellite.

Feedback or suggestion? Click here.




ElementValue
Catalog44476
NameINTELSAT 39
Epoch Orbit15
Epoch Day229.22216822
Epoch Year2019
RAAN94.7208
Inclination0.3937
Eccentricity0.0258003
Argument of Perigee171.8089
Mean Anonmoly108.9487
Mean Motion1.04280422
Decay Rate-9.9E-07
L11 44476U 19049B 19229.22216822 -.00000099 00000-0 00000+0 0 9994
L22 44476 0.3937 94.7208 0258003 171.8089 108.9487 1.04280422 157

Live tracking and technical data element details for INTELSAT 39 (NORAD 44476). INTELSAT 39 can be tracked NOW for your location showing map with azimuth and elevation plus other details from your city location.

Track the satellite on the map from your city or location and see movement details for azimuth, elevation, latitude, longitude, range, height, and movement on the map or in text.







IsCatalogInMostPopularTable: catalog: 44476, numindb: 3
Update: records affected: 1



GetName: 44476 INTELSAT 39

Hit Count: updated at: Wed, 21 Aug 2019 11:27:26 GMT